TNO5555 SBFZ-SCIE

Flight info

Callsign TNO5555
Flight time N/A
Altitude 36000
Route DALVO UZ18 IRUMA UZ84 SOTLU UM799 ATERU/N0456F380 UM799 ASIMO UL322 DILOK/N0445F390 UL322 TBN/N0449F380 UT101 VTN/N0442F390 UT200 SOSTA SOSTA6C
Aircraft A20N/M-SDE2E3FGHIRWXY/LB1

Departure

Time N/A
Airport Pinto Martins International Airport (SBFZ)

Arrival

Time 2026-04-30 22:40
Airport Carriel Sur International Airport (SCIE)
Time Latitude Longitude Altitude Speed Heading
2026-04-30 17:39 -11.23480 -48.66533 35880 ft 477 kts 232°
2026-04-30 17:42 -11.43171 -48.93704 35878 ft 477 kts 232°
2026-04-30 17:43 -11.53014 -49.07314 35880 ft 477 kts 232°
2026-04-30 17:44 -11.64808 -49.23645 35878 ft 476 kts 232°
2026-04-30 17:47 -11.82454 -49.48129 35877 ft 476 kts 232°
2026-04-30 17:48 -11.96158 -49.67185 35872 ft 477 kts 232°
2026-04-30 17:50 -12.11801 -49.88989 35866 ft 476 kts 232°
2026-04-30 17:52 -12.23533 -50.05366 35861 ft 476 kts 232°
2026-04-30 17:54 -12.41096 -50.29938 35855 ft 476 kts 232°
2026-04-30 17:56 -12.56663 -50.51774 35856 ft 475 kts 233°
2026-04-30 17:58 -12.68296 -50.68125 35856 ft 475 kts 233°
2026-04-30 18:00 -12.83792 -50.89950 35854 ft 474 kts 233°
2026-04-30 18:01 -12.93502 -51.03652 35853 ft 475 kts 233°
2026-04-30 18:02 -13.05106 -51.20057 35855 ft 475 kts 233°
2026-04-30 18:04 -13.16723 -51.36507 35860 ft 474 kts 233°
2026-04-30 18:06 -13.32162 -51.58418 35863 ft 474 kts 234°
2026-04-30 18:08 -13.45634 -51.77584 35868 ft 473 kts 234°
2026-04-30 18:10 -13.61005 -51.99502 35868 ft 473 kts 234°
2026-04-30 18:11 -13.74462 -52.18735 35869 ft 474 kts 235°
2026-04-30 18:13 -13.84042 -52.32455 35871 ft 473 kts 234°
2026-04-30 18:14 -13.93636 -52.46216 35874 ft 473 kts 235°
2026-04-30 18:15 -14.07030 -52.60947 35877 ft 475 kts 220°
2026-04-30 18:16 -14.17261 -52.69505 35879 ft 475 kts 220°
2026-04-30 18:17 -14.22375 -52.73811 35879 ft 475 kts 220°
2026-04-30 18:18 -14.30034 -52.80289 35879 ft 475 kts 220°
2026-04-30 18:18 -14.35135 -52.84606 35878 ft 475 kts 220°
2026-04-30 18:19 -14.40245 -52.88932 35879 ft 474 kts 220°
2026-04-30 18:19 -14.45309 -52.93222 35882 ft 475 kts 220°
2026-04-30 18:20 -14.50406 -52.97541 35882 ft 474 kts 220°
2026-04-30 18:20 -14.55506 -53.01866 35881 ft 474 kts 220°
2026-04-30 18:21 -14.60606 -53.06193 35886 ft 475 kts 220°
2026-04-30 18:21 -14.65712 -53.10529 35885 ft 475 kts 220°
2026-04-30 18:22 -14.70806 -53.14856 35883 ft 473 kts 220°
2026-04-30 18:22 -14.78402 -53.21315 35884 ft 473 kts 220°
2026-04-30 18:23 -14.83479 -53.25636 35891 ft 474 kts 220°
2026-04-30 18:23 -14.88568 -53.29969 35893 ft 474 kts 220°
2026-04-30 18:24 -14.96167 -53.36445 35896 ft 474 kts 220°
2026-04-30 18:25 -15.01252 -53.40781 35891 ft 473 kts 220°
2026-04-30 18:25 -15.08925 -53.47330 35899 ft 480 kts 220°
2026-04-30 18:26 -15.16704 -53.53977 35899 ft 487 kts 220°
2026-04-30 18:27 -15.24566 -53.60701 35900 ft 494 kts 220°
2026-04-30 18:28 -15.32249 -53.67287 38583 ft 387 kts 222°
2026-04-30 18:28 -15.34087 -53.68910 41101 ft 312 kts 224°
2026-04-30 18:28 -15.37125 -53.71900 39812 ft 332 kts 230°
2026-04-30 18:29 -15.38829 -53.73900 36675 ft 411 kts 232°
2026-04-30 18:29 -15.43620 -53.81319 37955 ft 334 kts 247°
2026-04-30 18:30 -15.44938 -53.84745 38427 ft 306 kts 258°
2026-04-30 18:30 -15.45598 -53.90741 34085 ft 415 kts 275°
2026-04-30 18:31 -15.45336 -53.93769 33506 ft 420 kts 282°
2026-04-30 18:31 -15.43923 -53.98911 35698 ft 319 kts 299°
2026-04-30 18:32 -15.41551 -54.02296 35754 ft 298 kts 322°
2026-04-30 18:32 -15.39738 -54.03626 34154 ft 341 kts 334°
2026-04-30 18:32 -15.34897 -54.05133 32773 ft 363 kts 358°
2026-04-30 18:33 -15.32532 -54.05048 33748 ft 319 kts 12°
2026-04-30 18:33 -15.28921 -54.03288 34215 ft 289 kts 44°
2026-04-30 18:33 -15.27608 -54.01597 32926 ft 326 kts 60°
2026-04-30 18:34 -15.26726 -53.99301 31804 ft 359 kts 77°
2026-04-30 18:34 -15.27058 -53.94362 32416 ft 323 kts 114°
2026-04-30 18:34 -15.28237 -53.92490 32856 ft 305 kts 135°
2026-04-30 18:35 -15.29968 -53.91185 32278 ft 320 kts 157°
2026-04-30 18:35 -15.32220 -53.90574 31191 ft 352 kts 179°
2026-04-30 18:35 -15.34696 -53.90873 30577 ft 364 kts 200°
2026-04-30 18:36 -15.38280 -53.93886 31187 ft 316 kts 250°
2026-04-30 18:36 -15.38804 -53.96034 31019 ft 308 kts 276°
2026-04-30 18:36 -15.36799 -53.99984 29317 ft 338 kts 332°
2026-04-30 18:37 -15.34629 -54.00764 29211 ft 325 kts
2026-04-30 18:37 -15.32532 -54.00296 29619 ft 301 kts 33°
2026-04-30 18:37 -15.31099 -53.98801 29608 ft 296 kts 65°
2026-04-30 18:37 -15.30671 -53.96694 28963 ft 313 kts 97°
2026-04-30 18:38 -15.31470 -53.94544 28270 ft 335 kts 130°
2026-04-30 18:38 -15.33314 -53.93138 28028 ft 338 kts 163°
2026-04-30 18:38 -15.35588 -53.92991 28147 ft 326 kts 198°
2026-04-30 18:38 -15.37513 -53.94088 28166 ft 315 kts 231°
2026-04-30 18:39 -15.38570 -53.96034 27760 ft 316 kts 264°
2026-04-30 18:39 -15.38427 -53.98284 27261 ft 317 kts 298°
2026-04-30 18:39 -15.37100 -54.00030 27019 ft 308 kts 333°
2026-04-30 18:39 -15.35125 -54.00623 27036 ft 293 kts
2026-04-30 18:40 -15.33270 -53.99924 26996 ft 286 kts 43°
2026-04-30 18:40 -15.32163 -53.98233 26696 ft 293 kts 77°
2026-04-30 18:40 -15.32211 -53.96136 26309 ft 307 kts 112°
2026-04-30 18:40 -15.33484 -53.94374 26114 ft 313 kts 148°
2026-04-30 18:41 -15.35513 -53.93681 26096 ft 311 kts 183°
2026-04-30 18:41 -15.37559 -53.94273 25987 ft 309 kts 218°
2026-04-30 18:41 -15.38944 -53.95938 25722 ft 309 kts 253°
2026-04-30 18:41 -15.39173 -53.98105 25463 ft 305 kts 289°
2026-04-30 18:42 -15.38163 -53.99955 25358 ft 294 kts 325°
2026-04-30 18:42 -15.34491 -54.00325 25150 ft 281 kts 37°
2026-04-30 18:42 -15.33277 -53.98769 24952 ft 286 kts 73°
2026-04-30 18:45 -15.34118 -53.98830 23693 ft 279 kts 79°
2026-04-30 18:45 -15.34293 -53.96842 23605 ft 286 kts 116°
2026-04-30 18:45 -15.35637 -53.95322 23507 ft 295 kts 154°
2026-04-30 18:46 -15.37629 -53.94911 23400 ft 299 kts 191°
2026-04-30 18:46 -15.39502 -53.95786 23256 ft 300 kts 228°
2026-04-30 18:46 -15.40520 -53.97609 23156 ft 294 kts 265°
2026-04-30 18:46 -15.40520 -53.98988 23085 ft 288 kts 290°
2026-04-30 18:47 -15.39534 -54.00710 22956 ft 279 kts 328°
2026-04-30 18:47 -15.37175 -54.01362 22783 ft 270 kts 18°
2026-04-30 18:47 -15.35600 -54.00385 22696 ft 269 kts 55°
2026-04-30 18:47 -15.34979 -53.98577 22606 ft 275 kts 90°
2026-04-30 18:48 -15.35304 -53.96498 21502 ft 322 kts 103°
2026-04-30 18:48 -15.35693 -53.95029 21712 ft 311 kts 102°
2026-04-30 18:48 -15.36651 -53.92276 22180 ft 306 kts 120°
2026-04-30 18:48 -15.37907 -53.90484 22245 ft 311 kts 130°
2026-04-30 18:49 -15.39556 -53.89013 22275 ft 318 kts 148°
2026-04-30 18:49 -15.41603 -53.88207 22289 ft 324 kts 172°
2026-04-30 18:49 -15.43849 -53.88331 22287 ft 328 kts 198°
2026-04-30 18:49 -15.45269 -53.88971 22251 ft 332 kts 211°
2026-04-30 18:50 -15.47816 -53.90781 22234 ft 338 kts 217°
2026-04-30 18:50 -15.49070 -53.91748 22267 ft 340 kts 217°
2026-04-30 18:50 -15.50973 -53.93216 22307 ft 343 kts 217°
2026-04-30 18:50 -15.52899 -53.94689 22359 ft 345 kts 217°
2026-04-30 18:51 -15.54843 -53.96164 22408 ft 348 kts 216°
2026-04-30 18:51 -15.56807 -53.97649 22449 ft 350 kts 216°
2026-04-30 18:51 -15.58786 -53.99142 22494 ft 354 kts 216°
2026-04-30 18:51 -15.60800 -54.00660 22602 ft 364 kts 216°
2026-04-30 18:52 -15.62877 -54.02224 22748 ft 373 kts 216°
2026-04-30 18:52 -15.65004 -54.03826 22899 ft 382 kts 216°
2026-04-30 18:52 -15.67180 -54.05464 23057 ft 391 kts 216°
2026-04-30 18:52 -15.69408 -54.07141 23205 ft 400 kts 216°
2026-04-30 18:53 -15.71657 -54.08835 23351 ft 408 kts 216°
2026-04-30 18:53 -15.73977 -54.10583 23491 ft 416 kts 216°
2026-04-30 18:53 -15.76340 -54.12364 23609 ft 424 kts 216°
2026-04-30 18:53 -15.78754 -54.14184 23723 ft 432 kts 216°
2026-04-30 18:54 -15.81203 -54.16031 23822 ft 439 kts 216°
2026-04-30 18:54 -15.83695 -54.17910 23939 ft 446 kts 216°
2026-04-30 18:54 -15.86224 -54.19819 24039 ft 452 kts 216°
2026-04-30 18:54 -15.88784 -54.21751 24151 ft 458 kts 216°
2026-04-30 18:55 -15.91337 -54.23678 24352 ft 460 kts 216°
2026-04-30 18:55 -15.96535 -54.27606 24835 ft 464 kts 216°
2026-04-30 18:55 -15.99153 -54.29584 25099 ft 465 kts 216°
2026-04-30 18:56 -16.04401 -54.33553 25682 ft 467 kts 216°
2026-04-30 18:56 -16.07030 -54.35542 25944 ft 469 kts 216°
2026-04-30 18:56 -16.09675 -54.37544 26194 ft 471 kts 216°
2026-04-30 18:57 -16.14986 -54.41565 26703 ft 474 kts 216°
2026-04-30 18:57 -16.17617 -54.43559 26951 ft 475 kts 216°
2026-04-30 18:57 -16.20293 -54.45587 27197 ft 477 kts 217°
2026-04-30 18:58 -16.25677 -54.49669 27728 ft 480 kts 217°
2026-04-30 18:58 -16.28380 -54.51720 27994 ft 482 kts 217°
2026-04-30 18:58 -16.31090 -54.53776 28327 ft 481 kts 217°
2026-04-30 18:59 -16.36479 -54.57868 29006 ft 479 kts 217°
2026-04-30 19:00 -16.44488 -54.63955 29956 ft 476 kts 217°
2026-04-30 19:00 -16.47169 -54.65993 30203 ft 476 kts 217°
2026-04-30 19:00 -16.52514 -54.70061 30697 ft 475 kts 217°
2026-04-30 19:01 -16.57847 -54.74121 31182 ft 475 kts 217°
2026-04-30 19:01 -16.60509 -54.76149 31427 ft 474 kts 217°
2026-04-30 19:02 -16.65791 -54.80175 31894 ft 473 kts 217°
2026-04-30 19:02 -16.71095 -54.84221 32399 ft 471 kts 217°
2026-04-30 19:03 -16.76367 -54.88246 32848 ft 469 kts 218°
2026-04-30 19:03 -16.81637 -54.92271 33249 ft 469 kts 218°
2026-04-30 19:04 -16.86861 -54.96264 33647 ft 468 kts 218°
2026-04-30 19:04 -16.92107 -55.00278 34004 ft 468 kts 218°
2026-04-30 19:05 -16.97351 -55.04291 34354 ft 466 kts 218°
2026-04-30 19:05 -17.02571 -55.08290 34679 ft 465 kts 218°
2026-04-30 19:06 -17.07764 -55.12270 35068 ft 461 kts 218°
2026-04-30 19:06 -17.10309 -55.14222 35191 ft 461 kts 218°
2026-04-30 19:06 -17.15480 -55.18191 35439 ft 461 kts 218°
2026-04-30 19:07 -17.20649 -55.22160 35696 ft 460 kts 218°
2026-04-30 19:07 -17.23226 -55.24140 35820 ft 460 kts 219°
2026-04-30 19:08 -17.28383 -55.28104 35998 ft 460 kts 219°
2026-04-30 19:08 -17.33508 -55.32046 36150 ft 461 kts 219°
2026-04-30 19:09 -17.41264 -55.38018 36428 ft 461 kts 219°
2026-04-30 19:09 -17.46447 -55.42012 36534 ft 463 kts 219°
2026-04-30 19:10 -17.51607 -55.45992 36676 ft 464 kts 219°
2026-04-30 19:10 -17.56814 -55.50011 36804 ft 465 kts 219°
2026-04-30 19:11 -17.64641 -55.56056 37030 ft 466 kts 219°
2026-04-30 19:12 -17.69867 -55.60097 37147 ft 467 kts 219°
2026-04-30 19:12 -17.72445 -55.62092 37252 ft 466 kts 219°
2026-04-30 19:12 -17.75091 -55.64139 37325 ft 467 kts 219°
2026-04-30 19:13 -17.85533 -55.72228 37516 ft 469 kts 219°
2026-04-30 19:14 -17.90793 -55.76307 37620 ft 470 kts 219°
2026-04-30 19:14 -17.96052 -55.80388 37763 ft 470 kts 219°
2026-04-30 19:15 -18.01307 -55.84469 37868 ft 470 kts 219°
2026-04-30 19:15 -18.09203 -55.90607 37882 ft 470 kts 220°
2026-04-30 19:16 -18.14409 -55.94658 37884 ft 469 kts 220°
2026-04-30 19:17 -18.22276 -56.00785 37884 ft 469 kts 220°
2026-04-30 19:17 -18.30146 -56.06922 37880 ft 469 kts 220°
2026-04-30 19:18 -18.37970 -56.13030 37899 ft 469 kts 220°
2026-04-30 19:19 -18.43197 -56.17113 37891 ft 466 kts 220°
2026-04-30 19:19 -18.50993 -56.23212 37888 ft 465 kts 220°
2026-04-30 19:20 -18.56156 -56.27254 37886 ft 465 kts 220°
2026-04-30 19:21 -18.63948 -56.33361 37892 ft 465 kts 220°
2026-04-30 19:22 -18.74328 -56.41507 37892 ft 465 kts 220°
2026-04-30 19:23 -18.89858 -56.53719 37891 ft 465 kts 220°
2026-04-30 19:24 -18.97641 -56.59849 37885 ft 466 kts 220°
2026-04-30 19:25 -19.10612 -56.70083 37884 ft 467 kts 220°
2026-04-30 19:26 -19.20989 -56.78284 37885 ft 467 kts 220°
2026-04-30 19:27 -19.28799 -56.84466 37882 ft 467 kts 220°
2026-04-30 19:28 -19.36609 -56.90656 37891 ft 468 kts 220°
2026-04-30 19:29 -19.46975 -56.98881 37885 ft 466 kts 220°
2026-04-30 19:30 -19.57346 -57.07125 37882 ft 466 kts 220°
2026-04-30 19:31 -19.67704 -57.15373 37892 ft 466 kts 221°
2026-04-30 19:31 -19.75441 -57.21541 37890 ft 465 kts 221°
2026-04-30 19:32 -19.80629 -57.25682 37897 ft 462 kts 222°
2026-04-30 19:32 -19.85769 -57.29788 37896 ft 462 kts 222°
2026-04-30 19:33 -19.90869 -57.33866 37889 ft 462 kts 222°
2026-04-30 19:33 -19.96001 -57.37973 37888 ft 462 kts 222°
2026-04-30 19:34 -20.01131 -57.42082 37883 ft 461 kts 222°
2026-04-30 19:35 -20.08800 -57.48230 37892 ft 460 kts 223°
2026-04-30 19:35 -20.13876 -57.52304 37892 ft 460 kts 223°
2026-04-30 19:36 -20.18983 -57.56406 37890 ft 460 kts 223°
2026-04-30 19:36 -20.26641 -57.62564 37887 ft 460 kts 223°
2026-04-30 19:37 -20.31742 -57.66669 37890 ft 460 kts 223°
2026-04-30 19:37 -20.36840 -57.70776 37889 ft 459 kts 223°
2026-04-30 19:38 -20.41892 -57.74849 37901 ft 458 kts 223°
2026-04-30 19:38 -20.46968 -57.78944 37892 ft 457 kts 223°
2026-04-30 19:39 -20.52032 -57.83034 37892 ft 456 kts 223°
2026-04-30 19:39 -20.57093 -57.87126 37891 ft 456 kts 223°
2026-04-30 19:40 -20.62153 -57.91219 37890 ft 456 kts 223°
2026-04-30 19:40 -20.67210 -57.95314 37889 ft 456 kts 223°
2026-04-30 19:41 -20.72235 -57.99386 37892 ft 456 kts 223°
2026-04-30 19:41 -20.77292 -58.03488 37893 ft 456 kts 223°
2026-04-30 19:42 -20.82339 -58.07585 37892 ft 456 kts 223°
2026-04-30 19:42 -20.87389 -58.11688 37892 ft 456 kts 223°
2026-04-30 19:43 -20.92402 -58.15764 37895 ft 456 kts 224°
2026-04-30 19:44 -20.99967 -58.21923 37896 ft 456 kts 224°
2026-04-30 19:44 -21.05022 -58.26043 37892 ft 457 kts 224°
2026-04-30 19:45 -21.10079 -58.30168 37897 ft 457 kts 224°
2026-04-30 19:45 -21.15136 -58.34295 37889 ft 456 kts 224°
2026-04-30 19:46 -21.20150 -58.38392 37889 ft 456 kts 224°
2026-04-30 19:46 -21.25192 -58.42516 37889 ft 456 kts 224°
2026-04-30 19:47 -21.30236 -58.46645 37892 ft 456 kts 224°
2026-04-30 19:47 -21.35276 -58.50774 37892 ft 456 kts 224°
2026-04-30 19:48 -21.40315 -58.54906 37889 ft 456 kts 224°
2026-04-30 19:48 -21.45320 -58.59014 37897 ft 456 kts 224°
2026-04-30 19:49 -21.50371 -58.63164 37892 ft 458 kts 224°
2026-04-30 19:49 -21.57962 -58.69405 37892 ft 458 kts 224°
2026-04-30 19:50 -21.63025 -58.73574 37893 ft 459 kts 224°
2026-04-30 19:50 -21.68091 -58.77749 37894 ft 459 kts 224°
2026-04-30 19:51 -21.73116 -58.81893 37895 ft 458 kts 224°
2026-04-30 19:51 -21.78165 -58.86061 37908 ft 458 kts 224°
2026-04-30 19:52 -21.83222 -58.90240 37898 ft 459 kts 224°
2026-04-30 19:52 -21.88288 -58.94431 37899 ft 459 kts 224°
2026-04-30 19:53 -21.93323 -58.98598 37895 ft 459 kts 224°
2026-04-30 19:53 -21.98387 -59.02794 37903 ft 459 kts 224°
2026-04-30 19:54 -22.03455 -59.06997 37895 ft 460 kts 225°
2026-04-30 19:54 -22.08524 -59.11206 37894 ft 460 kts 225°
2026-04-30 19:55 -22.13599 -59.15422 37896 ft 460 kts 225°
2026-04-30 19:55 -22.18672 -59.19641 37894 ft 460 kts 225°
2026-04-30 19:56 -22.23737 -59.23857 37897 ft 460 kts 225°
2026-04-30 19:56 -22.28805 -59.28080 37899 ft 460 kts 225°
2026-04-30 19:57 -22.33838 -59.32277 37908 ft 460 kts 225°
2026-04-30 19:57 -22.38905 -59.36507 37895 ft 460 kts 225°
2026-04-30 19:58 -22.43969 -59.40739 37891 ft 460 kts 225°
2026-04-30 19:58 -22.49032 -59.44972 37895 ft 459 kts 225°
2026-04-30 19:59 -22.54076 -59.49194 37893 ft 458 kts 225°
2026-04-30 20:00 -22.61624 -59.55522 37894 ft 458 kts 225°
2026-04-30 20:00 -22.66656 -59.59745 37896 ft 458 kts 226°
2026-04-30 20:01 -22.74178 -59.66065 37890 ft 458 kts 226°
2026-04-30 20:01 -22.79210 -59.70297 37899 ft 458 kts 226°
2026-04-30 20:02 -22.86763 -59.76657 37889 ft 456 kts 226°
2026-04-30 20:03 -22.94230 -59.82955 37890 ft 455 kts 226°
2026-04-30 20:03 -22.99224 -59.87173 37888 ft 454 kts 226°
2026-04-30 20:04 -23.04207 -59.91384 37888 ft 454 kts 226°
2026-04-30 20:05 -23.11664 -59.97695 37882 ft 452 kts 226°
2026-04-30 20:05 -23.19063 -60.03963 37886 ft 450 kts 227°
2026-04-30 20:06 -23.23991 -60.08146 37876 ft 449 kts 227°
2026-04-30 20:06 -23.28914 -60.12328 37876 ft 449 kts 227°
2026-04-30 20:07 -23.33838 -60.16514 37885 ft 449 kts 227°
2026-04-30 20:08 -23.41190 -60.22772 37878 ft 449 kts 227°
2026-04-30 20:08 -23.46110 -60.26965 37876 ft 449 kts 227°
2026-04-30 20:09 -23.51018 -60.31150 37881 ft 447 kts 227°
2026-04-30 20:09 -23.58346 -60.37408 37887 ft 446 kts 227°
2026-04-30 20:10 -23.65639 -60.43647 37886 ft 446 kts 227°
2026-04-30 20:11 -23.72987 -60.49941 37881 ft 445 kts 227°
2026-04-30 20:11 -23.77830 -60.54094 37880 ft 445 kts 227°
2026-04-30 20:12 -23.85133 -60.60365 37885 ft 445 kts 227°
2026-04-30 20:13 -23.89990 -60.64540 37878 ft 444 kts 227°
2026-04-30 20:13 -23.94850 -60.68722 37884 ft 445 kts 227°
2026-04-30 20:14 -23.99715 -60.72914 37884 ft 445 kts 227°
2026-04-30 20:14 -24.04578 -60.77106 37887 ft 445 kts 227°
2026-04-30 20:15 -24.09443 -60.81305 37873 ft 446 kts 227°
2026-04-30 20:15 -24.14310 -60.85510 37877 ft 446 kts 227°
2026-04-30 20:16 -24.19173 -60.89715 37880 ft 445 kts 227°
2026-04-30 20:16 -24.24028 -60.93918 37871 ft 445 kts 227°
2026-04-30 20:17 -24.28847 -60.98094 37887 ft 444 kts 227°
2026-04-30 20:17 -24.33694 -61.02299 37882 ft 444 kts 227°
2026-04-30 20:18 -24.38544 -61.06510 37885 ft 445 kts 227°
2026-04-30 20:18 -24.43395 -61.10726 37878 ft 445 kts 227°
2026-04-30 20:19 -24.48245 -61.14946 37878 ft 445 kts 227°
2026-04-30 20:19 -24.53096 -61.19170 37884 ft 445 kts 227°
2026-04-30 20:20 -24.57951 -61.23403 37881 ft 446 kts 228°
2026-04-30 20:20 -24.62769 -61.27607 37878 ft 445 kts 228°
2026-04-30 20:21 -24.67618 -61.31843 37881 ft 445 kts 228°
2026-04-30 20:21 -24.72464 -61.36081 37881 ft 445 kts 228°
2026-04-30 20:22 -24.77312 -61.40325 37878 ft 445 kts 228°
2026-04-30 20:22 -24.82128 -61.44545 37881 ft 445 kts 228°
2026-04-30 20:23 -24.86961 -61.48782 37880 ft 441 kts 227°
2026-04-30 20:23 -24.91736 -61.52973 37881 ft 438 kts 228°
2026-04-30 20:24 -24.96493 -61.57157 37881 ft 438 kts 228°
2026-04-30 20:24 -25.01225 -61.61322 37881 ft 438 kts 228°
2026-04-30 20:25 -25.08370 -61.67616 37882 ft 438 kts 228°
2026-04-30 20:26 -25.15506 -61.73912 37879 ft 438 kts 228°
2026-04-30 20:26 -25.22592 -61.80172 37881 ft 435 kts 228°
2026-04-30 20:27 -25.32020 -61.88520 37879 ft 434 kts 228°
2026-04-30 20:28 -25.41416 -61.96857 37878 ft 436 kts 228°
2026-04-30 20:30 -25.53252 -62.07380 37878 ft 436 kts 228°
2026-04-30 20:31 -25.67402 -62.19997 37877 ft 436 kts 228°
2026-04-30 20:32 -25.79241 -62.30587 37870 ft 439 kts 228°
2026-04-30 20:33 -25.86342 -62.36949 37868 ft 439 kts 228°
2026-04-30 20:34 -25.93469 -62.43345 37867 ft 439 kts 229°
2026-04-30 20:35 -26.00596 -62.49753 37867 ft 439 kts 229°
2026-04-30 20:35 -26.06912 -62.55440 37863 ft 439 kts 229°
2026-04-30 20:36 -26.12422 -62.60408 37860 ft 439 kts 229°
2026-04-30 20:37 -26.18733 -62.66106 37861 ft 439 kts 229°
2026-04-30 20:37 -26.24263 -62.71104 37864 ft 438 kts 229°
2026-04-30 20:38 -26.28190 -62.74659 37856 ft 437 kts 229°
2026-04-30 20:38 -26.32914 -62.78939 37850 ft 437 kts 229°
2026-04-30 20:39 -26.40758 -62.86056 37854 ft 437 kts 229°
2026-04-30 20:40 -26.47042 -62.91766 37849 ft 437 kts 229°
2026-04-30 20:40 -26.51759 -62.96058 37870 ft 437 kts 229°
2026-04-30 20:41 -26.58826 -63.02496 37849 ft 437 kts 229°
2026-04-30 20:41 -26.63530 -63.06789 37846 ft 437 kts 229°
2026-04-30 20:42 -26.68204 -63.11058 37844 ft 437 kts 229°
2026-04-30 20:43 -26.75262 -63.17514 37842 ft 437 kts 229°
2026-04-30 20:43 -26.79966 -63.21822 37842 ft 437 kts 229°
2026-04-30 20:44 -26.87014 -63.28285 37837 ft 436 kts 229°
2026-04-30 20:45 -26.96395 -63.36907 37842 ft 436 kts 229°
2026-04-30 20:45 -27.01082 -63.41221 37839 ft 436 kts 229°
2026-04-30 20:46 -27.10416 -63.49827 37834 ft 435 kts 229°
2026-04-30 20:47 -27.17428 -63.56305 37836 ft 435 kts 229°
2026-04-30 20:48 -27.24438 -63.62791 37829 ft 435 kts 229°
2026-04-30 20:48 -27.29109 -63.67120 37827 ft 435 kts 229°
2026-04-30 20:49 -27.33740 -63.71416 37830 ft 435 kts 229°
2026-04-30 20:50 -27.40737 -63.77917 37829 ft 436 kts 229°
2026-04-30 20:50 -27.45412 -63.82266 37826 ft 436 kts 229°
2026-04-30 20:51 -27.50084 -63.86617 37822 ft 436 kts 229°
2026-04-30 20:51 -27.57090 -63.93152 37824 ft 436 kts 229°
2026-04-30 20:52 -27.61764 -63.97518 37828 ft 436 kts 229°
2026-04-30 20:53 -27.68738 -64.04041 37837 ft 436 kts 229°
2026-04-30 20:53 -27.73407 -64.08415 37842 ft 436 kts 229°
2026-04-30 20:54 -27.80408 -64.14982 37849 ft 436 kts 229°
2026-04-30 20:55 -27.87411 -64.21563 37851 ft 436 kts 229°
2026-04-30 20:55 -27.92072 -64.25949 37835 ft 436 kts 229°
2026-04-30 20:56 -27.99025 -64.32502 37834 ft 436 kts 229°
2026-04-30 20:57 -28.06006 -64.39093 37821 ft 436 kts 229°
2026-04-30 20:57 -28.10668 -64.43501 37809 ft 436 kts 229°
2026-04-30 20:58 -28.17621 -64.50084 37837 ft 436 kts 229°
2026-04-30 20:58 -28.22279 -64.54500 37810 ft 436 kts 229°
2026-04-30 20:59 -28.29259 -64.61128 37801 ft 436 kts 229°
2026-04-30 21:00 -28.38563 -64.69984 37804 ft 436 kts 229°
2026-04-30 21:01 -28.45498 -64.76595 37799 ft 436 kts 229°
2026-04-30 21:02 -28.52463 -64.83250 37799 ft 436 kts 229°
2026-04-30 21:02 -28.57105 -64.87690 37797 ft 436 kts 229°
2026-04-30 21:03 -28.61716 -64.92105 37799 ft 436 kts 229°
2026-04-30 21:03 -28.66348 -64.96547 37799 ft 436 kts 229°
2026-04-30 21:04 -28.70985 -65.01000 37793 ft 436 kts 229°
2026-04-30 21:04 -28.77950 -65.07697 37788 ft 437 kts 229°
2026-04-30 21:05 -28.82595 -65.12170 37785 ft 437 kts 229°
2026-04-30 21:05 -28.87205 -65.16614 37785 ft 437 kts 229°
2026-04-30 21:06 -28.91843 -65.21092 37780 ft 437 kts 229°
2026-04-30 21:06 -28.96475 -65.25569 37782 ft 437 kts 229°
2026-04-30 21:07 -29.01113 -65.30056 37809 ft 436 kts 229°
2026-04-30 21:07 -29.05746 -65.34545 37778 ft 436 kts 229°
2026-04-30 21:08 -29.10334 -65.38996 37772 ft 436 kts 229°
2026-04-30 21:08 -29.14955 -65.43484 37774 ft 436 kts 229°
2026-04-30 21:09 -29.19578 -65.47979 37761 ft 436 kts 228°
2026-04-30 21:09 -29.24195 -65.52474 37768 ft 437 kts 228°
2026-04-30 21:10 -29.28806 -65.56971 37759 ft 438 kts 228°
2026-04-30 21:10 -29.33429 -65.61480 37764 ft 435 kts 228°
2026-04-30 21:11 -29.38036 -65.65982 37749 ft 435 kts 228°
2026-04-30 21:11 -29.42639 -65.70486 37745 ft 435 kts 228°
2026-04-30 21:12 -29.47244 -65.74998 37747 ft 435 kts 228°
2026-04-30 21:12 -29.51811 -65.79477 37744 ft 435 kts 228°
2026-04-30 21:13 -29.56414 -65.83998 37749 ft 437 kts 228°
2026-04-30 21:13 -29.61055 -65.88564 37740 ft 440 kts 228°
2026-04-30 21:14 -29.65678 -65.93111 37745 ft 436 kts 228°
2026-04-30 21:14 -29.70244 -65.97611 37744 ft 435 kts 228°
2026-04-30 21:15 -29.74837 -66.02146 37743 ft 435 kts 228°
2026-04-30 21:15 -29.79427 -66.06682 37744 ft 435 kts 228°
2026-04-30 21:16 -29.84016 -66.11222 37744 ft 434 kts 228°
2026-04-30 21:16 -29.88563 -66.15727 37741 ft 434 kts 228°
2026-04-30 21:17 -29.93134 -66.20261 37741 ft 434 kts 228°
2026-04-30 21:17 -29.97707 -66.24803 37749 ft 434 kts 228°
2026-04-30 21:18 -30.02280 -66.29350 37747 ft 434 kts 228°
2026-04-30 21:18 -30.06857 -66.33908 37747 ft 435 kts 228°
2026-04-30 21:19 -30.11407 -66.38444 37753 ft 436 kts 228°
2026-04-30 21:19 -30.15990 -66.43018 37754 ft 435 kts 228°
2026-04-30 21:20 -30.20576 -66.47602 37757 ft 436 kts 228°
2026-04-30 21:20 -30.25136 -66.52165 37760 ft 436 kts 228°
2026-04-30 21:21 -30.29726 -66.56765 37759 ft 438 kts 228°
2026-04-30 21:22 -30.36627 -66.63691 37765 ft 437 kts 228°
2026-04-30 21:23 -30.45780 -66.72897 37786 ft 437 kts 228°
2026-04-30 21:23 -30.52668 -66.79843 37762 ft 438 kts 228°
2026-04-30 21:24 -30.57262 -66.84482 37761 ft 438 kts 228°
2026-04-30 21:24 -30.61852 -66.89123 37762 ft 438 kts 228°
2026-04-30 21:25 -30.68698 -66.96056 37763 ft 437 kts 228°
2026-04-30 21:26 -30.75566 -67.03025 37765 ft 437 kts 228°
2026-04-30 21:27 -30.82391 -67.09965 37767 ft 435 kts 228°
2026-04-30 21:27 -30.86944 -67.14602 37762 ft 435 kts 228°
2026-04-30 21:28 -30.93763 -67.21559 37766 ft 435 kts 228°
2026-04-30 21:29 -31.00531 -67.28475 37756 ft 432 kts 228°
2026-04-30 21:30 -31.11798 -67.40024 37756 ft 432 kts 228°
2026-04-30 21:31 -31.23051 -67.51577 37746 ft 431 kts 228°
2026-04-30 21:32 -31.29793 -67.58536 37740 ft 431 kts 228°
2026-04-30 21:32 -31.34286 -67.63182 37740 ft 431 kts 228°
2026-04-30 21:33 -31.40993 -67.70121 37749 ft 431 kts 228°
2026-04-30 21:34 -31.45476 -67.74765 37747 ft 430 kts 228°
2026-04-30 21:34 -31.52184 -67.81727 37740 ft 429 kts 228°
2026-04-30 21:35 -31.56650 -67.86369 37745 ft 429 kts 228°
2026-04-30 21:35 -31.61084 -67.90985 37738 ft 429 kts 228°
2026-04-30 21:36 -31.65546 -67.95636 37736 ft 429 kts 228°
2026-04-30 21:37 -31.74458 -68.04951 37742 ft 429 kts 228°
2026-04-30 21:37 -31.78907 -68.09606 37735 ft 429 kts 226°
2026-04-30 21:38 -31.83564 -68.14025 37738 ft 430 kts 225°
2026-04-30 21:38 -31.88250 -68.18413 37738 ft 431 kts 225°
2026-04-30 21:39 -31.92913 -68.22771 37739 ft 432 kts 225°
2026-04-30 21:39 -31.97622 -68.27174 37733 ft 432 kts 225°
2026-04-30 21:40 -32.02332 -68.31581 37733 ft 432 kts 225°
2026-04-30 21:40 -32.07042 -68.35994 37736 ft 432 kts 225°
2026-04-30 21:41 -32.11716 -68.40379 37735 ft 432 kts 225°
2026-04-30 21:41 -32.16418 -68.44797 37736 ft 432 kts 225°
2026-04-30 21:42 -32.21120 -68.49220 37747 ft 432 kts 225°
2026-04-30 21:42 -32.25815 -68.53643 37742 ft 432 kts 224°
2026-04-30 21:43 -32.30494 -68.58058 37744 ft 435 kts 225°
2026-04-30 21:43 -32.35223 -68.62526 37770 ft 435 kts 225°
2026-04-30 21:44 -32.39937 -68.66984 37757 ft 433 kts 225°
2026-04-30 21:44 -32.44637 -68.71436 37758 ft 433 kts 225°
2026-04-30 21:45 -32.49339 -68.75896 37769 ft 433 kts 225°
2026-04-30 21:45 -32.54007 -68.80329 37782 ft 433 kts 225°
2026-04-30 21:46 -32.58700 -68.84790 37777 ft 432 kts 225°
2026-04-30 21:46 -32.63392 -68.89263 37788 ft 434 kts 225°
2026-04-30 21:47 -32.68103 -68.93757 37791 ft 435 kts 224°
2026-04-30 21:47 -32.72792 -68.98237 37790 ft 436 kts 224°
2026-04-30 21:48 -32.77515 -69.02754 37792 ft 435 kts 224°
2026-04-30 21:48 -32.82223 -69.07270 37782 ft 434 kts 225°
2026-04-30 21:49 -32.86932 -69.11783 37788 ft 435 kts 224°
2026-04-30 21:49 -32.91619 -69.16282 37796 ft 436 kts 225°
2026-04-30 21:50 -32.96335 -69.20820 37819 ft 436 kts 224°
2026-04-30 21:50 -33.01053 -69.25362 37823 ft 436 kts 224°
2026-04-30 21:51 -33.05773 -69.29914 37853 ft 436 kts 224°
2026-04-30 21:51 -33.10457 -69.34437 37828 ft 436 kts 224°
2026-04-30 21:52 -33.15158 -69.38991 37848 ft 436 kts 224°
2026-04-30 21:52 -33.19870 -69.43556 37886 ft 436 kts 224°
2026-04-30 21:53 -33.24589 -69.48132 37899 ft 438 kts 224°
2026-04-30 21:53 -33.29301 -69.52705 37904 ft 435 kts 224°
2026-04-30 21:54 -33.33973 -69.57250 37949 ft 437 kts 224°
2026-04-30 21:54 -33.38701 -69.61861 37952 ft 437 kts 224°
2026-04-30 21:55 -33.43444 -69.66489 37952 ft 441 kts 225°
2026-04-30 21:55 -33.48186 -69.71124 37993 ft 441 kts 225°
2026-04-30 21:56 -33.52950 -69.75779 37985 ft 442 kts 225°
2026-04-30 21:56 -33.57674 -69.80410 37986 ft 440 kts 225°
2026-04-30 21:57 -33.62394 -69.85063 38024 ft 440 kts 225°
2026-04-30 21:57 -33.67130 -69.89707 38017 ft 437 kts 225°
2026-04-30 21:58 -33.71815 -69.94310 38029 ft 434 kts 225°
2026-04-30 21:58 -33.76446 -69.98875 38024 ft 433 kts 224°
2026-04-30 21:59 -33.81104 -70.03464 38017 ft 434 kts 224°
2026-04-30 22:00 -33.88108 -70.10397 38036 ft 434 kts 224°
2026-04-30 22:00 -33.95052 -70.17292 38033 ft 433 kts 225°
2026-04-30 22:01 -33.99707 -70.21912 38040 ft 433 kts 226°
2026-04-30 22:01 -34.04294 -70.26463 38024 ft 423 kts 226°
2026-04-30 22:02 -34.08827 -70.30972 38012 ft 421 kts 226°
2026-04-30 22:02 -34.13320 -70.35462 38019 ft 418 kts 226°
2026-04-30 22:03 -34.17788 -70.39928 38019 ft 422 kts 226°
2026-04-30 22:03 -34.22314 -70.44452 38017 ft 422 kts 226°
2026-04-30 22:04 -34.26831 -70.48975 38005 ft 421 kts 226°
2026-04-30 22:05 -34.33583 -70.55738 38015 ft 421 kts 226°
2026-04-30 22:05 -34.38067 -70.60248 38010 ft 417 kts 227°
2026-04-30 22:06 -34.42521 -70.64735 38008 ft 417 kts 227°
2026-04-30 22:06 -34.49221 -70.71493 37998 ft 418 kts 227°
2026-04-30 22:07 -34.53656 -70.75971 37987 ft 417 kts 227°
2026-04-30 22:07 -34.58102 -70.80469 38016 ft 417 kts 227°
2026-04-30 22:08 -34.62551 -70.84978 38006 ft 416 kts 227°
2026-04-30 22:08 -34.67002 -70.89495 37998 ft 417 kts 227°
2026-04-30 22:09 -34.71447 -70.94011 37996 ft 417 kts 227°
2026-04-30 22:09 -34.75863 -70.98503 37997 ft 416 kts 227°
2026-04-30 22:10 -34.80293 -71.03016 37993 ft 415 kts 227°
2026-04-30 22:10 -34.84715 -71.07530 37992 ft 415 kts 227°
2026-04-30 22:11 -34.91316 -71.14278 37992 ft 415 kts 227°
2026-04-30 22:12 -34.95731 -71.18801 37997 ft 415 kts 227°
2026-04-30 22:12 -34.97942 -71.21068 37510 ft 417 kts 227°
2026-04-30 22:12 -35.00177 -71.23365 36702 ft 422 kts 227°
2026-04-30 22:12 -35.02431 -71.25681 36015 ft 424 kts 227°
2026-04-30 22:13 -35.04677 -71.27985 35713 ft 418 kts 227°
2026-04-30 22:13 -35.06881 -71.30244 35475 ft 412 kts 227°
2026-04-30 22:13 -35.09045 -71.32471 35238 ft 412 kts 227°
2026-04-30 22:13 -35.11240 -71.34734 34983 ft 414 kts 227°
2026-04-30 22:14 -35.13441 -71.37004 34755 ft 415 kts 227°
2026-04-30 22:14 -35.15644 -71.39277 34524 ft 415 kts 227°
2026-04-30 22:14 -35.17865 -71.41573 34280 ft 421 kts 227°
2026-04-30 22:14 -35.20097 -71.43878 34042 ft 418 kts 226°
2026-04-30 22:15 -35.22313 -71.46167 33785 ft 416 kts 227°
2026-04-30 22:15 -35.24521 -71.48449 33516 ft 416 kts 227°
2026-04-30 22:15 -35.26734 -71.50740 33250 ft 417 kts 227°
2026-04-30 22:15 -35.28920 -71.53004 32988 ft 417 kts 227°
2026-04-30 22:16 -35.31134 -71.55300 32757 ft 418 kts 227°
2026-04-30 22:16 -35.33351 -71.57599 32498 ft 418 kts 227°
2026-04-30 22:17 -35.39982 -71.64490 30727 ft 419 kts 227°
2026-04-30 22:17 -35.42214 -71.66814 30026 ft 422 kts 227°
2026-04-30 22:17 -35.46660 -71.71440 28982 ft 414 kts 227°
2026-04-30 22:18 -35.48842 -71.73713 28483 ft 410 kts 227°
2026-04-30 22:18 -35.53155 -71.78215 27483 ft 404 kts 227°
2026-04-30 22:19 -35.57404 -71.82658 26497 ft 399 kts 227°
2026-04-30 22:19 -35.59509 -71.84862 25997 ft 397 kts 227°
2026-04-30 22:19 -35.63685 -71.89242 25014 ft 394 kts 227°
2026-04-30 22:20 -35.65741 -71.91399 24504 ft 392 kts 227°
2026-04-30 22:20 -35.69879 -71.95743 23483 ft 390 kts 227°
2026-04-30 22:20 -35.71937 -71.97906 22926 ft 388 kts 227°
2026-04-30 22:21 -35.73984 -72.00058 22430 ft 385 kts 227°
2026-04-30 22:21 -35.76007 -72.02187 21937 ft 381 kts 227°
2026-04-30 22:21 -35.78015 -72.04301 21432 ft 379 kts 227°
2026-04-30 22:21 -35.80006 -72.06400 20921 ft 376 kts 227°
2026-04-30 22:22 -35.81963 -72.08464 20442 ft 373 kts 227°
2026-04-30 22:22 -35.83927 -72.10537 19942 ft 371 kts 227°
2026-04-30 22:22 -35.85885 -72.12606 19456 ft 369 kts 227°
2026-04-30 22:22 -35.87828 -72.14660 18960 ft 368 kts 227°
2026-04-30 22:23 -35.89766 -72.16711 18488 ft 366 kts 227°
2026-04-30 22:23 -35.91694 -72.18752 17943 ft 365 kts 227°
2026-04-30 22:23 -35.93614 -72.20785 17441 ft 362 kts 227°
2026-04-30 22:23 -35.95516 -72.22799 16968 ft 359 kts 227°
2026-04-30 22:24 -35.97400 -72.24797 16494 ft 356 kts 227°
2026-04-30 22:24 -35.99269 -72.26779 16030 ft 353 kts 227°
2026-04-30 22:24 -36.01098 -72.28722 15566 ft 350 kts 227°
2026-04-30 22:24 -36.02960 -72.30701 15093 ft 348 kts 227°
2026-04-30 22:25 -36.04767 -72.32623 14631 ft 346 kts 227°
2026-04-30 22:25 -36.06580 -72.34552 14154 ft 345 kts 227°
2026-04-30 22:25 -36.08399 -72.36490 13671 ft 343 kts 227°
2026-04-30 22:25 -36.10200 -72.38407 13190 ft 340 kts 226°
2026-04-30 22:26 -36.13751 -72.42193 12288 ft 335 kts 226°
2026-04-30 22:26 -36.15512 -72.44073 11836 ft 333 kts 226°
2026-04-30 22:26 -36.17259 -72.45939 11401 ft 330 kts 226°
2026-04-30 22:27 -36.18981 -72.47775 10976 ft 321 kts 226°
2026-04-30 22:27 -36.20622 -72.49523 10909 ft 302 kts 226°
2026-04-30 22:27 -36.23661 -72.52769 10644 ft 283 kts 227°
2026-04-30 22:28 -36.26661 -72.55997 9877 ft 287 kts 227°
2026-04-30 22:28 -36.28159 -72.57605 9514 ft 285 kts 227°
2026-04-30 22:29 -36.32576 -72.62345 8501 ft 279 kts 226°
2026-04-30 22:29 -36.34055 -72.63934 8149 ft 278 kts 226°
2026-04-30 22:30 -36.39778 -72.70087 6924 ft 270 kts 226°
2026-04-30 22:31 -36.44002 -72.74636 5940 ft 266 kts 225°
2026-04-30 22:32 -36.48044 -72.79001 5351 ft 242 kts 224°
2026-04-30 22:32 -36.50523 -72.81683 4845 ft 234 kts 223°
2026-04-30 22:33 -36.54069 -72.85515 4259 ft 207 kts 222°
2026-04-30 22:33 -36.56206 -72.87830 3534 ft 202 kts 222°
2026-04-30 22:34 -36.59353 -72.91239 2387 ft 200 kts 222°
2026-04-30 22:35 -36.61389 -72.93451 1931 ft 192 kts 222°
2026-04-30 22:36 -36.64617 -72.96965 1824 ft 129 kts 221°
2026-04-30 22:36 -36.65298 -72.97702 1826 ft 130 kts 221°
2026-04-30 22:37 -36.67115 -72.99673 1818 ft 130 kts 220°
2026-04-30 22:37 -36.68016 -73.00653 1818 ft 130 kts 221°
2026-04-30 22:37 -36.69545 -73.01830 1663 ft 131 kts 207°
2026-04-30 22:38 -36.71210 -73.02773 1300 ft 131 kts 205°
2026-04-30 22:38 -36.72604 -73.03537 951 ft 132 kts 205°
2026-04-30 22:39 -36.73718 -73.04214 704 ft 139 kts 208°
2026-04-30 22:39 -36.76318 -73.05769 55 ft 131 kts 204°
2026-04-30 22:40 -36.77380 -73.06382 42 ft 8 kts 153°
2026-04-30 22:41 -36.77631 -73.06171 42 ft 16 kts 74°
2026-04-30 22:41 -36.77627 -73.06023 41 ft 12 kts 158°
2026-04-30 22:42 -36.77634 -73.06019 41 ft 0 kts 158°